User: anonymous
Location: Albany
(35.0000°S, 118.0000°E)
Time: 21:16:54
(UTC-04:00)
Language:

Cosmos 1346 Rocket - Orbit

View from above orbital plane
View from above orbital plane
View from above satellite
View from above satellite

Ground track
Ground track

The orbit data is extracted from the following two-line orbital elements,

1 13121U 82027B   14211.46408657  .00000376  00000-0  24530-4 0  4513
2 13121 081.1661 246.5559 0029149 045.3851 314.9742 15.05176988758404
Epoch (UTC): 30 July 2014 11:08:17
Eccentricity: 0.0029149
inclination: 81.1661°
perigee height: 531 km
apogee height: 571 km
right ascension of ascending node: 246.5559°
argument of perigee: 45.3851°
revolutions per day: 15.05176988
mean anomaly at epoch: 314.9742°
orbit number at epoch: 75840

The dashed part of the orbit path shows where the satellite is in the earth's shadow,  

DLR